Location: Bucaritos
(10.0779°N, 67.0369°W)
Time: 17:32:35
(UTC+00:00)

OAO 2 Rocket - Pass Details

Date: 27 June 2022
Orbit: 675 x 745 km, 35.0° (Epoch: 08 August)

Event Time Altitude Azimuth Distance (km) Brightness Sun altitude
Rises 23:23:45 0° 311° (NW) 3,127 8.5 -7.8°
Reaches altitude 10° 23:26:12 10° 315° (NW) 2,216 7.3 -8.3°
Maximum altitude 23:31:22 60° 35° (NE) 835 3.7 -9.5°
Enters shadow 23:35:56 14° 113° (ESE) 2,005 5.0 -10.5°
